Temperature
12 12 12 13 14 15 15 15 15 16 16 15 15 15 16 16 17 16 17 17 16 16 15 15 14 14 14 14 14 13 13 13 13 13 13 12 12 12 12 12 12 12 12 12
12 12 14 15 15 14 14 14 14 15 16 15 14 14 15 16 16 16 16 16 16 15 15 14 14 14 13 13 13 13 13 13 13 12 12 12 12 12 12 12 12 12 12 11
12 14 15 14 14 13 14 13 14 14 14 14 14 13 15 16 16 16 16 16 16 15 15 14 14 13 13 13 13 13 12 12 12 12 12 12 11 11 11 11 11 11 11 11
13 14 14 14 13 13 13 14 14 14 13 12 13 12 14 15 15 15 15 15 15 15 14 14 13 13 12 12 12 12 12 12 12 12 11 11 11 11 11 11 11 11 11 10
13 13 13 13 14 14 13 14 13 13 12 11 12 11 13 15 14 14 14 15 15 14 14 13 13 12 12 12 12 11 11 11 11 11 11 11 11 11 11 10 10 10 10 10
13 13 13 13 14 14 13 13 12 12 11 10 12 12 13 14 14 14 14 15 15 14 13 13 12 12 12 11 11 11 11 11 11 11 11 11 10 10 10 10 10 10 10 9
12 12 13 13 12 12 12 11 10 10 10 10 13 13 13 15 15 15 14 14 14 13 13 12 12 11 11 11 11 11 10 10 10 10 10 10 10 10 10 9 9 9 9 9
11 12 12 12 12 12 11 11 11 10 11 12 13 12 14 15 14 15 15 14 13 13 12 12 11 11 11 10 10 10 10 10 10 10 10 10 9 9 9 9 9 8 8 8
12 12 13 13 13 12 11 11 12 11 11 10 11 13 13 14 13 13 14 14 13 12 12 11 11 11 10 10 10 10 9 9 9 9 9 9 9 9 9 9 8 8 8 7
12 11 11 12 12 11 12 12 10 10 10 10 12 13 12 12 12 13 12 12 13 12 12 11 11 10 10 10 9 9 9 9 9 9 9 9 9 8 8 8 8 8 7 7
11 10 10 10 10 10 10 11 11 10 10 10 11 12 14 13 13 12 12 12 12 12 11 11 10 10 9 9 9 8 8 8 8 8 8 8 8 8 7 7 7 7 7 6
11 10 9 10 11 11 11 11 10 9 9 10 10 11 14 13 13 12 12 12 12 12 11 10 10 10 9 9 8 8 8 8 8 7 7 7 7 7 7 7 6 6 6 6
10 9 8 9 9 9 10 10 10 10 9 9 9 10 13 12 12 12 12 12 12 11 11 10 9 9 8 8 8 7 7 7 7 7 7 7 6 6 6 6 6 6 5 5
10 8 8 9 9 9 8 9 9 9 8 8 9 10 11 11 11 11 11 11 11 11 10 9 9 8 8 8 7 7 7 7 6 6 6 6 6 6 5 5 5 5 5 5
9 7 8 9 9 9 9 9 9 9 9 8 9 10 11 11 11 11 11 11 10 10 9 9 8 8 7 7 7 6 6 6 6 6 6 5 5 5 5 5 5 5 4 4
7 7 7 8 9 9 9 9 9 9 9 9 10 10 11 11 12 11 11 11 10 10 9 8 8 7 7 6 6 6 6 5 5 5 5 5 5 4 4 4 4 4 4 4
6 6 6 7 8 8 7 8 9 9 9 10 9 10 10 10 10 10 11 10 9 9 8 8 7 7 6 6 5 5 5 5 5 4 4 4 4 4 4 4 4 3 3 3
6 6 6 6 6 5 8 11 10 10 10 10 10 10 10 10 10 10 10 9 9 8 8 7 6 6 5 5 5 5 4 4 4 4 3 3 3 3 3 3 3 3 3 3
6 6 5 5 5 6 9 10 10 9 9 10 9 9 9 10 9 9 9 8 8 7 7 6 6 5 5 4 4 4 4 4 3 3 3 3 2 2 2 2 2 2 2 2
6 6 5 5 5 5 8 9 10 9 7 9 9 8 8 8 6 7 8 7 7 6 6 5 5 4 4 4 4 3 3 3 2 2 2 2 2 1 1 1 1 2 1 1
5 5 5 5 5 6 8 9 9 6 7 8 9 8 8 7 7 7 7 6 6 5 5 4 4 4 3 3 3 3 2 2 2 1 1 1 1 1 1 1 1 1 1 0
5 4 4 5 5 5 8 7 7 7 8 8 8 7 7 7 6 6 6 5 5 4 4 4 3 3 3 2 2 2 2 1 1 1 1 1 0 0 -0 -0 -0 -0 -1 -1
5 5 5 5 6 7 7 7 7 7 7 7 7 6 6 6 5 5 4 4 4 3 3 3 3 2 2 2 1 1 1 1 0 0 -0 -0 -0 -1 -1 -1 -1 -1 -1 -1
5 5 5 5 5 6 6 6 6 6 6 6 6 5 5 5 4 4 4 3 3 3 3 2 2 2 1 1 1 0 0 0 -0 -0 -1 -1 -1 -1 -2 -2 -2 -2 -2 -2
5 5 4 4 5 6 6 6 6 5 5 5 5 4 4 4 3 3 3 2 2 2 2 2 1 1 0 0 -0 -0 -1 -1 -1 -1 -2 -2 -2 -2 -2 -2 -3 -3 -3 -3
4 4 4 4 5 5 5 5 5 5 4 4 4 4 3 3 3 2 2 2 2 1 1 1 0 -0 -0 -1 -1 -1 -1 -1 -2 -2 -2 -2 -3 -3 -3 -3 -3 -3 -4 -4
Wind_Speed
9 8 11 12 14 11 9 9 10 8 4 4 9 12 12 9 8 7 6 6 6 5 4 4 3 3 2 1 1 1 2 3 2 2 2 2 3 3 3 3 4 4 4 5
7 13 13 9 9 11 12 12 12 8 4 5 9 13 13 11 9 8 6 5 5 5 5 4 3 3 2 1 1 1 1 2 2 2 3 3 3 3 3 2 3 4 4 5
12 5 8 11 10 11 12 12 11 9 7 7 9 11 11 8 7 6 5 4 3 4 4 3 3 3 2 1 0 1 1 2 3 3 2 2 1 1 1 2 2 3 4 4
11 10 8 10 12 11 10 8 9 8 6 5 4 7 6 6 6 7 7 6 5 4 4 3 2 2 2 1 1 1 1 1 1 2 3 3 3 3 3 3 3 3 3 4
7 7 9 12 11 10 5 3 5 7 7 7 7 7 8 7 7 8 7 6 5 5 4 3 3 3 2 3 2 1 1 1 1 2 3 4 3 3 2 2 3 4 3 4
10 6 5 6 5 5 2 2 5 5 4 7 9 9 7 5 6 7 7 6 5 4 4 3 3 3 2 2 1 1 2 2 1 1 2 3 3 3 3 3 4 4 3 3
10 11 7 4 3 5 5 3 2 4 6 7 7 7 7 3 2 5 7 6 5 4 4 3 3 2 1 1 1 1 2 3 2 1 2 2 2 3 3 3 3 3 3 3
7 8 11 9 8 6 9 8 6 5 5 3 3 7 4 3 4 5 6 7 6 4 4 3 3 2 1 1 0 1 2 3 3 2 3 3 2 2 3 3 3 3 3 3
7 4 6 8 6 6 7 9 5 4 4 4 6 5 2 3 5 6 6 6 5 5 4 3 2 2 1 0 0 1 2 3 3 3 3 3 2 2 3 4 4 4 3 4
3 3 5 4 3 6 5 4 4 5 4 6 7 8 5 7 7 7 7 5 4 4 3 2 2 2 1 1 1 1 2 2 2 2 2 3 2 2 3 3 4 4 4 3
4 3 4 5 9 10 7 6 6 5 5 4 4 4 0 6 6 6 6 5 4 3 2 2 2 2 1 1 1 2 2 2 2 2 2 3 3 3 3 3 4 4 4 4
5 3 5 7 5 5 8 9 9 6 6 5 4 4 2 5 5 5 4 3 2 2 2 2 2 1 1 1 1 2 2 3 2 2 3 3 4 4 3 4 4 4 4 4
5 4 3 3 3 4 5 8 9 7 4 5 6 5 0 3 3 3 2 1 2 2 2 2 2 1 1 1 1 2 2 3 3 3 3 3 4 4 4 5 5 4 5 5
4 5 7 7 3 3 5 8 9 8 7 7 9 8 6 4 2 1 2 2 2 2 2 2 1 1 1 2 2 2 2 3 4 3 3 3 4 5 5 5 5 5 5 5
4 5 7 9 7 6 8 10 12 14 12 10 10 12 11 7 5 3 2 2 2 2 2 2 1 0 1 2 2 2 3 3 3 4 4 4 5 5 5 6 5 6 6 6
4 4 5 8 9 9 11 12 13 14 14 15 15 16 10 7 5 4 3 2 2 2 2 1 1 1 2 2 2 3 3 3 3 4 5 5 5 5 6 6 6 6 6 6
5 4 4 6 6 7 12 14 16 14 13 13 17 14 7 6 6 3 2 2 2 2 2 1 1 1 2 2 3 3 3 3 3 4 5 6 6 6 7 7 6 6 6 6
7 6 4 3 4 11 8 5 11 13 13 13 10 8 7 6 4 3 1 1 2 2 2 2 2 2 2 2 3 3 3 3 4 4 5 6 6 7 8 7 7 7 6 6
9 7 5 4 6 8 7 6 6 7 9 8 8 7 4 2 2 2 0 2 4 3 3 2 1 1 2 2 2 3 3 3 4 5 5 6 7 7 8 8 8 7 7 7
9 8 7 6 6 7 3 2 2 1 5 4 4 4 2 1 2 3 3 5 5 4 3 2 2 1 2 3 3 3 4 4 5 5 6 6 6 7 8 8 8 7 7 7
8 8 11 10 8 7 3 3 5 5 4 2 2 1 1 2 2 2 5 5 4 3 2 2 1 1 2 3 2 3 4 5 5 5 5 6 6 7 8 7 6 6 6 7
7 6 8 8 8 7 2 4 4 2 2 4 3 3 3 2 3 4 4 3 3 2 1 1 1 2 2 3 3 4 5 5 5 5 6 6 6 6 7 6 6 6 6 6
6 6 3 5 5 1 2 2 1 2 2 2 2 3 3 2 2 2 2 1 0 0 1 1 1 2 3 3 2 4 5 4 5 5 6 6 6 5 5 6 6 6 5 4
4 3 3 4 4 2 1 1 2 1 1 1 2 2 2 1 1 0 1 1 1 1 0 1 1 3 4 4 3 4 4 4 4 5 6 5 6 6 6 5 5 5 5 5
3 2 4 6 5 3 3 3 2 1 1 1 1 1 0 1 1 2 2 2 1 1 1 0 1 2 4 4 4 4 4 4 4 5 5 5 5 5 5 5 4 5 4 5
5 5 6 6 4 4 4 2 1 2 2 2 1 1 1 1 2 2 2 2 1 2 1 1 1 2 4 4 4 4 3 3 4 4 5 4 4 5 5 5 6 7 8 10
Wind_Direction
191 211 216 216 215 239 266 273 271 270 272 247 255 267 269 261 250 247 240 226 209 202 188 151 148 143 149 158 168 182 178 193 180 191 212 221 235 240 244 237 239 237 225 217
200 225 228 233 233 238 249 262 269 280 287 284 274 274 268 255 242 235 229 220 204 189 187 163 161 150 155 163 162 222 202 205 190 203 215 221 227 227 227 235 240 241 235 224
219 217 210 225 230 236 243 246 257 272 295 273 278 275 249 241 229 214 211 211 195 182 169 150 156 149 141 128 77 301 249 232 205 198 208 232 224 224 225 241 241 241 249 234
235 241 226 225 230 230 248 243 256 271 275 269 254 287 264 242 216 197 195 198 199 179 159 153 149 122 111 90 50 338 268 245 227 203 202 205 216 224 234 231 241 247 243 241
229 215 211 223 229 227 240 290 267 264 261 270 247 254 267 224 219 204 190 183 181 164 154 155 145 120 94 73 50 351 339 288 243 224 218 217 229 233 233 233 241 246 245 242
247 250 230 228 230 225 223 272 272 258 252 254 228 224 267 230 214 181 167 159 152 143 134 127 116 110 91 66 32 355 347 327 301 254 247 236 236 241 246 249 245 244 245 246
228 225 210 199 186 191 191 189 222 218 215 239 212 218 243 203 149 151 159 152 140 137 132 129 125 117 114 89 20 344 339 320 315 307 288 270 255 255 252 253 250 257 255 251
213 218 191 191 197 190 199 203 210 224 231 245 215 233 239 143 121 121 135 138 135 138 133 130 133 131 120 113 347 341 334 313 310 303 294 292 274 257 256 259 252 251 250 247
212 215 168 186 195 195 194 216 234 270 287 276 241 236 214 165 146 144 139 139 148 144 136 133 118 113 87 23 352 330 327 318 320 317 308 300 290 275 273 268 258 252 252 255
242 216 180 159 173 228 239 207 184 207 228 244 242 233 221 182 175 162 159 158 156 151 155 152 136 117 92 45 10 333 329 317 310 317 316 314 299 285 280 279 274 271 266 266
219 204 178 173 201 202 199 216 214 216 229 229 250 247 236 161 163 162 161 153 152 152 150 142 127 116 104 55 5 338 330 327 322 326 323 321 314 299 286 280 279 282 281 272
198 204 218 218 215 224 212 211 205 214 230 229 253 272 19 118 126 128 130 132 134 136 131 122 112 93 76 23 339 338 338 338 318 317 321 320 318 312 299 290 285 284 284 280
175 189 202 209 228 220 233 228 225 234 242 236 238 252 80 101 118 127 126 134 140 129 127 109 89 60 357 339 335 336 339 339 333 329 323 321 318 314 303 296 291 287 283 282
198 210 214 214 216 192 223 228 225 222 229 240 237 249 256 254 245 227 215 206 163 144 135 124 107 28 345 345 346 338 336 344 343 336 321 314 310 306 301 296 294 293 288 284
196 226 240 260 267 248 247 237 226 227 230 236 250 252 256 253 255 246 241 198 174 183 168 162 166 331 340 347 349 344 339 344 340 335 325 308 303 301 301 296 294 294 291 290
198 232 249 255 253 252 253 245 239 239 239 244 255 260 259 273 269 254 239 210 214 210 179 154 136 16 341 333 337 337 335 333 334 328 318 314 308 303 300 295 292 289 288 286
193 200 216 246 241 265 255 234 232 234 233 236 247 252 252 256 260 261 244 207 207 206 147 111 80 27 344 334 334 328 321 329 329 320 318 320 317 311 302 298 297 291 288 289
203 207 219 242 224 239 244 220 225 235 242 237 242 244 232 238 258 281 276 189 179 138 103 76 54 15 344 338 339 332 329 328 321 316 317 319 320 317 313 304 296 293 292 291
210 201 208 215 236 261 263 239 212 224 249 236 235 240 240 234 298 295 158 128 126 108 100 99 82 16 341 333 337 334 326 320 316 312 312 315 317 316 314 308 302 298 296 293
208 201 207 215 230 240 243 189 137 122 266 250 216 212 201 149 227 234 121 99 89 82 79 74 56 14 335 325 339 328 314 316 310 310 312 315 318 315 310 308 306 304 299 295
194 205 214 225 238 255 256 158 127 182 239 65 105 135 163 187 203 126 94 82 83 79 68 57 29 334 311 318 331 312 311 309 312 320 321 317 316 315 311 309 310 311 309 306
195 201 209 213 228 243 183 145 178 209 59 52 56 66 73 65 62 74 78 78 82 80 41 360 336 314 317 328 332 314 310 318 331 330 322 316 316 318 319 316 314 316 315 310
208 205 203 212 225 279 121 149 103 64 57 42 48 63 70 70 73 65 65 66 73 232 272 339 338 322 322 329 334 316 318 334 331 324 317 316 319 319 320 319 320 319 321 316
236 218 224 246 250 248 217 27 44 43 92 74 60 58 60 74 79 37 277 272 263 261 286 351 341 323 321 329 334 321 324 331 324 318 316 318 320 322 325 324 322 320 319 317
241 228 247 257 261 261 238 246 275 316 2 42 40 57 116 187 251 259 259 267 265 270 283 306 309 303 307 319 319 322 325 330 325 319 318 321 324 322 321 321 318 315 309 307
232 232 232 247 256 255 260 260 230 222 233 239 237 231 245 217 229 238 250 262 255 250 252 269 287 295 304 312 315 320 325 331 323 316 318 320 321 319 318 320 321 321 317 320
Height
1462 1464 1462 1458 1458 1457 1456 1457 1457 1451 1449 1452 1452 1449 1444 1443 1442 1442 1442 1443 1444 1445 1447 1447 1448 1448 1449 1450 1450 1450 1450 1451 1451 1452 1452 1453 1453 1454 1455 1455 1456 1456 1457 1457
1459 1458 1453 1452 1453 1455 1457 1459 1456 1451 1448 1449 1449 1445 1439 1437 1436 1437 1438 1439 1440 1442 1443 1444 1445 1446 1446 1447 1447 1447 1447 1447 1448 1448 1449 1450 1450 1450 1451 1451 1452 1452 1452 1453
1452 1448 1448 1450 1453 1455 1455 1457 1455 1453 1450 1448 1450 1444 1435 1430 1430 1431 1433 1435 1437 1439 1440 1441 1442 1443 1444 1444 1444 1444 1444 1444 1444 1444 1445 1446 1446 1446 1447 1447 1447 1448 1448 1449
1447 1444 1445 1448 1449 1451 1454 1449 1450 1452 1456 1455 1451 1454 1434 1428 1427 1427 1429 1432 1434 1436 1437 1439 1440 1441 1441 1441 1441 1441 1441 1441 1441 1441 1441 1442 1442 1442 1442 1443 1443 1443 1444 1444
1442 1441 1443 1446 1445 1446 1448 1447 1449 1451 1454 1456 1450 1455 1437 1425 1426 1425 1425 1429 1431 1433 1435 1437 1438 1438 1439 1439 1438 1438 1438 1438 1439 1439 1439 1439 1438 1439 1439 1439 1439 1439 1439 1439
1440 1439 1440 1440 1441 1443 1446 1449 1450 1451 1455 1460 1446 1449 1436 1423 1419 1419 1422 1426 1429 1431 1433 1435 1436 1436 1437 1436 1436 1436 1436 1436 1436 1436 1436 1435 1435 1435 1435 1435 1435 1434 1434 1434
1438 1436 1437 1438 1442 1444 1447 1454 1460 1459 1460 1452 1433 1436 1429 1416 1414 1415 1419 1423 1427 1430 1431 1433 1433 1434 1434 1434 1434 1434 1433 1433 1433 1432 1432 1432 1432 1432 1432 1431 1431 1430 1429 1429
1436 1435 1432 1434 1437 1441 1444 1448 1455 1457 1450 1438 1431 1432 1421 1412 1412 1414 1417 1422 1425 1428 1430 1431 1431 1432 1432 1432 1432 1431 1431 1430 1430 1429 1429 1429 1429 1428 1428 1427 1427 1426 1425 1424
1430 1430 1427 1429 1431 1435 1440 1443 1440 1447 1445 1447 1435 1422 1417 1412 1413 1415 1418 1421 1424 1426 1428 1429 1430 1430 1430 1430 1429 1429 1428 1427 1427 1427 1426 1425 1425 1424 1424 1423 1422 1421 1420 1419
1425 1430 1428 1429 1432 1433 1435 1435 1442 1448 1449 1445 1429 1422 1419 1416 1414 1415 1417 1420 1422 1424 1426 1427 1427 1428 1428 1428 1427 1426 1425 1425 1424 1424 1423 1422 1421 1420 1419 1418 1417 1416 1415 1415
1424 1431 1432 1432 1433 1432 1435 1436 1436 1438 1437 1440 1435 1423 1405 1407 1409 1412 1415 1418 1420 1422 1423 1424 1425 1426 1426 1426 1425 1424 1423 1422 1421 1420 1419 1418 1417 1416 1415 1414 1413 1412 1411 1410
1421 1427 1431 1428 1423 1423 1425 1427 1432 1440 1437 1432 1434 1425 1404 1405 1408 1411 1414 1416 1418 1420 1421 1422 1423 1423 1424 1423 1423 1421 1420 1419 1417 1416 1415 1414 1413 1411 1410 1409 1408 1407 1405 1404
1421 1427 1432 1431 1430 1426 1425 1424 1425 1429 1431 1432 1433 1425 1407 1407 1408 1411 1413 1415 1417 1418 1419 1420 1421 1421 1421 1421 1420 1419 1417 1416 1414 1412 1411 1409 1408 1407 1406 1405 1403 1402 1400 1399
1418 1423 1425 1424 1420 1421 1424 1423 1423 1427 1431 1429 1423 1417 1412 1409 1410 1411 1412 1413 1415 1416 1417 1418 1418 1419 1419 1418 1417 1416 1414 1413 1411 1409 1407 1406 1404 1403 1401 1400 1398 1396 1395 1393
1417 1420 1418 1416 1414 1416 1417 1418 1418 1420 1419 1423 1416 1412 1408 1407 1408 1409 1410 1411 1412 1413 1414 1415 1416 1416 1416 1415 1414 1413 1411 1409 1407 1405 1404 1402 1400 1398 1396 1394 1392 1390 1389 1387
1416 1418 1417 1417 1413 1413 1413 1412 1412 1412 1411 1411 1409 1406 1402 1403 1404 1405 1407 1408 1409 1410 1411 1412 1413 1413 1413 1412 1410 1409 1408 1406 1404 1402 1400 1398 1396 1394 1391 1389 1386 1385 1383 1382
1415 1417 1419 1417 1412 1412 1412 1404 1404 1404 1402 1403 1404 1401 1399 1401 1401 1402 1403 1405 1406 1407 1409 1410 1410 1410 1410 1409 1407 1406 1404 1402 1400 1398 1396 1393 1391 1389 1386 1384 1382 1379 1377 1375
1411 1414 1417 1416 1416 1419 1398 1389 1390 1393 1392 1393 1393 1393 1395 1396 1398 1399 1401 1402 1403 1405 1406 1407 1407 1407 1407 1406 1404 1403 1401 1399 1397 1394 1392 1390 1387 1384 1381 1379 1376 1374 1372 1370
1405 1410 1414 1415 1413 1403 1392 1387 1387 1389 1390 1388 1389 1390 1392 1393 1395 1397 1398 1399 1401 1402 1403 1404 1404 1404 1404 1403 1401 1399 1397 1395 1393 1391 1389 1386 1383 1380 1377 1374 1371 1369 1366 1364
1401 1404 1410 1410 1409 1403 1389 1384 1383 1387 1392 1385 1385 1387 1390 1392 1398 1398 1396 1397 1399 1400 1401 1402 1402 1401 1400 1399 1398 1396 1394 1392 1390 1388 1385 1382 1379 1376 1372 1369 1366 1363 1361 1359
1399 1401 1403 1404 1403 1395 1385 1383 1384 1396 1392 1385 1384 1386 1389 1391 1394 1395 1395 1396 1397 1398 1399 1399 1399 1398 1397 1396 1395 1393 1391 1389 1387 1384 1381 1378 1375 1372 1368 1365 1362 1359 1356 1354
1393 1396 1397 1398 1399 1395 1383 1383 1387 1387 1384 1384 1385 1386 1388 1390 1392 1393 1394 1395 1396 1396 1397 1397 1396 1395 1394 1393 1391 1389 1388 1386 1383 1381 1377 1374 1371 1368 1365 1361 1358 1355 1353 1350
1387 1388 1388 1389 1388 1383 1382 1382 1383 1384 1385 1385 1386 1387 1388 1390 1391 1392 1393 1394 1394 1394 1394 1394 1393 1392 1391 1390 1388 1386 1384 1382 1379 1377 1374 1371 1367 1364 1361 1358 1355 1351 1349 1346
1383 1383 1384 1385 1382 1381 1381 1381 1382 1384 1384 1385 1385 1386 1387 1389 1390 1391 1392 1392 1392 1392 1391 1391 1390 1388 1387 1386 1384 1383 1380 1378 1376 1373 1370 1367 1364 1361 1358 1355 1352 1349 1347 1344
1382 1382 1383 1382 1380 1379 1379 1380 1381 1382 1383 1383 1384 1385 1386 1387 1388 1389 1389 1389 1389 1388 1388 1387 1386 1385 1383 1382 1381 1379 1377 1375 1372 1369 1367 1364 1361 1358 1355 1352 1350 1347 1345 1343
1378 1380 1381 1380 1378 1379 1378 1379 1379 1380 1381 1381 1382 1383 1384 1384 1385 1385 1385 1385 1385 1385 1384 1383 1382 1381 1380 1378 1377 1375 1374 1372 1369 1366 1364 1361 1358 1355 1352 1349 1347 1345 1343 1341